Location: Brusselse Voorstad
(51.0333°N, 3.7667°E)
Time: 09:47:25
(UTC+00:00)

Daily predictions for brighter satellites

Satellite Brightness Start Highest point End
(mag) Time Altitude Azimuth Time Altitude Azimuth Time Altitude Azimuth
Cosmos 2344 4.2 16:19:57 10° NW 16:26:49 39° NNE 16:35:06 10° E
CZ-4C R/B 2.6 16:26:09 10° WSW 16:30:36 51° NW 16:36:22 10° NE
ATLAS 2AS CENTAUR R/B 3.7 16:25:54 10° NW 16:31:48 29° N 16:37:37 10° ENE
Cosmos 2263 Rocket 4.3 16:29:21 10° WNW 16:32:46 16° NNW 16:36:12 10° N
UNK 4.3 16:30:12 10° NNE 16:34:33 39° E 16:38:52 10° SSE
Cosmos 1844 Rocket 3.9 16:29:25 10° WSW 16:34:36 38° NW 16:39:51 10° NNE
Cosmos 1459 Rocket 4.3 16:30:02 10° SSW 16:36:20 78° W 16:42:45 10° N
YAOGAN 1 4.1 16:34:07 10° E 16:36:29 15° ENE 16:38:51 10° NNE
COSMOS 2406 4.3 16:36:15 10° NNW 16:40:54 25° NE 16:45:32 10° E
Cosmos 2084 Rocket 3.4 16:37:45 10° SW 16:41:55 77° SE 16:46:08 10° NE
ATLAS CENTAUR R/B 2.3 16:41:18 10° WSW 16:44:26 31° NW 16:47:35 10° NNE
Cosmos 1441 Rocket 3.7 16:42:10 10° NNW 16:45:28 55° W 16:48:45 10° S
Cosmos 1833 Rocket 3.2 16:40:43 10° NNW 16:46:21 68° WSW 16:51:55 10° SSE
SAR-Lupe-4 3.7 16:43:19 10° SSE 16:46:48 52° ENE 16:50:18 10° N
ARIANE 5 R/B 2.5 16:42:37 10° SSE 16:47:29 58° ENE 16:52:24 10° N
Timation 1 Rocket 4.3 16:48:49 10° NNW 16:54:47 65° NE 17:00:42 10° SE
USA 215 3.6 16:48:18 10° SE 16:54:50 73° SW 17:01:24 10° WNW
IRS-P3 4.2 16:53:06 10° SE 16:58:16 54° ENE 17:03:28 10° N
ATLAS 5 CENTAUR R/B 2.9 16:56:01 10° NW 17:00:11 48° SW 17:05:20 10° SSE
MOS 1 Rocket 3.6 16:56:21 10° SE 17:00:24 39° ENE 17:04:38 10° N
Cosmos 1484 Rocket 4.5 17:01:15 10° SSW 17:04:28 34° W 17:07:44 10° NNW
Iridium 4 Rocket 4.4 17:01:56 10° SSW 17:06:45 47° W 17:11:13 10° N
Resurs 01 Rocket 3.4 17:08:57 14° NE 17:08:57 14° NE 17:10:46 10° NNE
SJ-6F 4.4 17:05:02 10° SSE 17:08:50 54° ENE 17:12:41 10° N
RESURS DK-1 2.2 17:04:55 10° NNW 17:08:57 78° ENE 17:12:57 10° SE
Cosmos 2233 Rocket 4.1 17:02:47 10° S 17:09:06 90° ESE 17:15:30 10° N
Cosmos 1602 3.9 17:06:25 10° N 17:09:10 29° ENE 17:11:53 10° SE
Cosmos 407 Rocket 3.7 17:05:10 10° S 17:10:08 49° ESE 17:15:05 10° NNE
Cosmos 1725 Rocket 4.5 17:03:56 10° SSW 17:10:10 66° WNW 17:16:29 10° N
Cosmos 2061 Rocket 4.0 17:05:19 10° S 17:11:37 85° E 17:17:54 10° N
Geosat FO 4.1 17:12:36 10° SE 17:15:24 53° NE 17:18:15 10° NNW
ISS -2.8 17:12:27 10° SW 17:15:32 35° SSE 17:17:12 21° E
Cosmos 1782 Rocket 3.8 17:11:27 10° SSW 17:15:52 72° WNW 17:20:18 10° N
CZ-2D R/B 2.7 17:13:30 10° SSE 17:16:40 84° WSW 17:19:50 10° NNW
Cosmos 1869 3.0 17:14:09 10° S 17:17:35 54° E 17:21:02 10° NNE
ERS-1 4.5 17:13:31 10° SSE 17:18:40 86° ENE 17:23:48 10° NNW
USA 281 4.2 17:15:06 16° E 17:18:55 27° NE 17:24:12 10° NNW
SPOT 1/Viking Rocket 3.7 17:14:29 10° SE 17:19:26 48° ENE 17:24:26 10° N
Cosmos 1300 Rocket 4.2 17:15:45 10° SSW 17:20:04 59° WNW 17:24:25 10° N
COSMO-SKYMED 1 3.6 17:21:26 22° ENE 17:22:09 23° E 17:25:26 10° SE
SJ-12 3.9 17:19:41 10° S 17:23:28 77° WSW 17:27:18 10° NNW
Cosmos 1464 Rocket 4.4 17:19:19 10° SSE 17:25:06 40° E 17:30:51 10° NNE
AQUARIUS 4.1 17:22:52 10° SSE 17:27:17 89° WSW 17:31:44 10° NNW
SL-12 R/B(2) 4.4 17:20:13 10° SSW 17:28:06 65° SE 17:36:59 13° NE
Cosmos 540 Rocket 3.5 17:23:45 10° NNW 17:28:55 84° WSW 17:34:02 10° SSE
BREEZE-M DEB (TANK) 2.8 17:27:19 10° SW 17:29:47 45° SSE 17:32:21 23° E
Cosmos 1400 Rocket 3.7 17:28:25 10° SSE 17:31:12 25° ESE 17:31:12 25° ESE
Cosmos 1975 Rocket 3.9 17:27:56 10° NNW 17:32:10 53° W 17:36:25 10° S
Spot 4 Rocket 4.1 17:28:17 10° SE 17:33:14 53° ENE 17:38:13 10° N
Cosmos 1763 Rocket 3.9 17:29:11 10° NNW 17:34:22 66° WSW 17:39:27 10° S
Cosmos 1812 1.9 17:34:06 10° S 17:36:57 57° E 17:37:34 44° NE
Cosmos 1140 Rocket 4.1 17:37:00 10° SW 17:42:05 55° WNW 17:47:09 10° NNE
Cosmos 2151 Rocket 3.9 17:37:57 10° SSE 17:42:13 45° E 17:45:29 16° NNE
Cosmos 2058 2.6 17:38:17 10° N 17:42:16 76° ENE 17:46:15 10° SSE
SMAP 4.5 17:39:05 10° SSW 17:43:28 40° W 17:47:53 10° NNW
Cosmos 44 Rocket 3.4 17:40:11 10° SSW 17:44:51 57° SE 17:47:06 30° ENE
SKYMED 2 3.6 17:45:23 15° NNE 17:48:58 58° E 17:53:15 10° S
Cosmos 1943 Rocket 2.1 17:44:17 10° SSW 17:49:54 81° ESE 17:54:09 18° NNE
Helios 1A Rocket 3.8 17:51:57 26° SSE 17:51:57 26° SSE 17:53:45 10° S
Cosmos 1092 Rocket 4.4 17:44:57 10° N 17:50:44 38° ENE 17:54:59 17° SE
Okean 1 Rocket 3.6 17:48:06 10° SSE 17:51:43 36° ESE 17:51:43 36° ESE
SJ-7 4.0 17:48:38 10° SSE 17:52:17 67° ENE 17:55:58 10° N
CZ-2D R/B 3.3 17:48:09 10° SSE 17:52:17 85° ENE 17:56:32 10° NNW
IRAS Rocket 4.1 17:47:13 10° SSE 17:52:45 77° ENE 17:58:17 10° NNW
Cosmos 2082 Rocket 2.2 17:47:28 10° NNW 17:53:07 85° WSW 17:58:44 10° SSE
Sich 1 Rocket 4.0 17:48:58 10° SSE 17:53:10 39° E 17:53:29 39° E
PSLV R/B 3.3 17:49:53 10° SSE 17:53:52 64° ENE 17:57:53 10° N
Cosmos 2026 Rocket 4.1 17:51:33 10° N 17:57:22 45° ENE 18:03:14 10° SE
Cosmos 1072 Rocket 4.3 17:52:05 10° S 17:58:12 72° E 18:04:18 10° NNE
Cosmos 2278 Rocket 2.1 17:53:00 10° SSW 17:58:41 88° ESE 18:02:47 20° NNE
NOAA 6 4.0 17:55:35 10° SSE 18:00:38 60° ENE 18:05:42 10° N
BREEZE-M DEB (TANK) 3.6 17:58:40 10° SW 18:01:33 50° SSE 18:03:16 36° E
Aureole 3 Rocket 2.6 17:58:39 10° SSW 18:01:39 65° WNW 18:03:12 27° N
BREEZE-M DEB (TANK) 3.0 17:59:45 10° WSW 18:02:26 73° SSE 18:04:09 39° E
SL-16 R/B 4.2 17:59:29 10° N 18:04:55 32° WNW 18:10:20 10° WSW
Geosat 3.9 18:04:10 32° SE 18:06:26 65° NE 18:11:24 10° NNW
Cosmos 2251 Rocket 3.4 18:04:12 10° SSW 18:09:29 82° ESE 18:12:38 25° NNE
YAOGAN 1 2.5 18:07:29 10° SSE 18:11:46 84° WSW 18:16:03 10° NNW
Cosmos 371 Rocket 3.4 18:08:27 10° S 18:12:52 50° ESE 18:12:52 50° ESE
Cosmos 304 Rocket 3.8 18:09:33 10° S 18:13:57 52° ESE 18:13:57 52° ESE
Cosmos 841 Rocket 3.4 18:08:52 10° NNW 18:14:09 80° ENE 18:17:15 25° SSE
SJ 16-02 1.1 18:11:25 10° SSW 18:15:41 68° ESE 18:15:41 68° ESE
SL-19 R/B 4.1 18:10:47 10° SSE 18:15:59 81° WSW 18:21:16 10° NNW
Nadezhda 4 Rocket 4.1 18:13:11 10° NNW 18:19:30 79° W 18:25:43 10° S
CZ-4C R/B 3.7 18:15:45 10° WNW 18:20:13 27° N 18:22:35 21° NNE
ATLAS CENTAUR R/B 3.6 18:19:22 10° NW 18:20:27 11° NNW 18:20:45 11° N
Cosmos 1862 3.8 18:18:22 10° NNW 18:21:55 51° W 18:25:26 10° S
Resurs 1-3 3.8 18:19:29 10° S 18:23:45 69° WSW 18:28:04 10° NNW
ATLAS 2AS CENTAUR R/B 2.8 18:17:29 10° NW 18:24:08 53° NE 18:25:35 46° ENE
COSMOS 2406 3.2 18:20:11 10° NNW 18:25:54 85° WSW 18:29:07 27° SSE
Cosmos 1627 Rocket 4.3 18:21:51 10° N 18:27:59 70° ENE 18:34:08 10° SSE
Cosmos 1656 Rocket 4.3 18:24:37 10° S 18:28:33 39° SSE 18:28:33 39° SSE
Cosmos 2195 Rocket 4.4 18:27:03 10° N 18:33:24 90° W 18:39:45 10° S
Okean 2 Rocket 3.2 18:32:39 10° SSW 18:37:02 69° WNW 18:37:52 54° NNW
Cosmos 1190 Rocket 4.2 18:35:09 10° SSW 18:40:26 69° WNW 18:42:26 38° N
Cosmos 2344 3.8 18:34:25 10° NW 18:42:15 88° NE 18:47:32 32° SE
Cosmos 676 Rocket 3.9 18:37:59 10° SSW 18:43:15 83° ESE 18:43:15 83° ESE
Resurs 01 Rocket 3.0 18:46:22 30° NNW 18:46:22 30° NNW 18:48:39 10° NNW
Meteor 2-3 Rocket 3.8 18:39:36 10° NNW 18:45:20 79° W 18:49:59 16° S
Cosmos 2297 Rocket 4.3 18:46:29 10° N 18:48:17 14° N 18:48:17 14° N
ISS -1.3 18:48:46 10° W 18:50:07 22° W 18:50:07 22° W
Cosmos 1954 Rocket 4.3 18:48:09 10° SW 18:53:23 66° WNW 18:54:18 55° NNW
COSMO-SKYMED 1 3.6 18:57:48 42° WNW 18:57:48 42° WNW 19:01:33 10° SW
USA 281 3.0 19:01:59 73° SE 19:02:41 85° ENE 19:09:19 10° NNW
Cosmos 1943 Rocket 4.0 19:29:39 10° W 19:34:16 26° NW 19:35:40 23° NNW
Cosmos 2278 Rocket 4.0 19:38:56 10° W 19:43:30 24° NW 19:44:37 23° NNW
SJ 16-02 4.2 19:51:11 10° W 19:52:17 14° W 19:52:17 14° W
CZ-4C R/B 4.3 20:04:57 10° NW 20:07:32 23° NNW 20:07:32 23° NNW
ATLAS 2AS CENTAUR R/B 3.8 20:08:35 10° NW 20:13:01 38° WNW 20:13:01 38° WNW
